Port Weller, Ontario

11:04 PM EST on December 17, 2017 (GMT -0500)
Port Weller

Weather History for CWWZ - December, 2012

Change the Weather History Date:

Tuesday, December 25, 2012

  Actual Average (CYSN) Record (CYSN)
Temperature  
Mean Temperature 32 °F -  
Max Temperature 34 °F 32 °F 46 °F (2015)
Min Temperature 31 °F 22 °F 5 °F (2004)
Degree Days  
Heating Degree Days 32    
Moisture  
Dew Point 27 °F    
Average Humidity 78    
Maximum Humidity 92    
Minimum Humidity 63    
Precipitation  
Precipitation 0.01 in - - ()
Sea Level Pressure  
Sea Level Pressure 30.17 in    
Wind  
Wind Speed 6 mph ()    
Max Wind Speed 23 mph    
Max Gust Speed -    
Averages and records for this station are not official NWS values.
T = Trace of Precipitation, MM = Missing Value Source: Averaged Metar Reports

Daily Weather History Graph

Daily Weather History Graph

Search for Another Location

Airport or City:

Trip Planner

Search our weather history database for the weather conditions in past years. The results will help you decide how hot, cold, wet, or windy it might be!

Date:

Astronomy

Dec. 25, 2012 Rise Set
Actual Time 7:47 AM EST 4:46 PM EST
Civil Twilight 7:15 AM EST 5:19 PM EST
Nautical Twilight 6:39 AM EST 5:55 PM EST
Astronomical Twilight 6:04 AM EST 6:30 PM EST
Moon 2:54 PM EST (12/25) 5:17 AM EST (12/25)
Length of Visible Light 10h 04m
Length of Day
8h 59m
Waxing Gibbous, 93% of the Moon is Illuminated
Dec 25
Waxing Gibbous
Dec 28
Full
Jan 4
Last Quarter
Jan 11
New
Jan 18
First Quarter

Hourly Weather History & Observations

Time (EST) Temp. Windchill Dew Point Humidity Pressure Visibility Wind Dir Wind Speed Gust Speed Precip Events Conditions
12:00 AM 31.6 °F 27.0 °F 27.7 °F 85% 29.92 in - East 4.6 mph - N/A   Unknown
1:00 AM 32 °F - 28 °F 81% 29.93 in - East 5.8 mph - -  
1:00 AM 31.6 °F 26.0 °F 28.4 °F 88% 29.93 in - East 5.8 mph - N/A   Unknown
2:00 AM 31.6 °F 28.3 °F 27.3 °F 84% 29.95 in - ESE 3.5 mph - N/A   Unknown
3:00 AM 31.5 °F - 28.0 °F 87% 29.98 in - SE 2.3 mph - N/A   Unknown
4:00 AM 32 °F - 30 °F 87% 30.00 in - NE 3.5 mph - -  
4:00 AM 31.8 °F 28.5 °F 29.7 °F 92% 30.00 in - NE 3.5 mph - N/A   Unknown
5:00 AM 34.0 °F 21.8 °F 31.8 °F 92% 30.02 in - ENE 23.0 mph - 0.01 in   Unknown
6:00 AM 34.2 °F 23.0 °F 29.5 °F 83% 30.07 in - NE 19.6 mph - N/A   Unknown
7:00 AM 34 °F - 29 °F 74% 30.12 in - NE 16.1 mph - -  
7:00 AM 34.3 °F 24.2 °F 28.8 °F 80% 30.12 in - NE 16.1 mph - N/A   Unknown
8:00 AM 34.0 °F 24.2 °F 27.5 °F 77% 30.15 in - NE 15.0 mph - N/A   Unknown
9:00 AM 34.2 °F 25.2 °F 28.0 °F 78% 30.19 in - ENE 12.7 mph - N/A   Unknown
10:00 AM 33 °F - 28 °F 73% 30.22 in - ESE 5.8 mph - -  
10:00 AM 32.9 °F 27.5 °F 27.5 °F 81% 30.22 in - ESE 5.8 mph - N/A   Unknown
11:00 AM 31.5 °F 25.8 °F 28.0 °F 87% 30.23 in - ESE 5.8 mph - N/A   Unknown
12:00 PM 33.4 °F 28.1 °F 27.5 °F 79% 30.21 in - East 5.8 mph - N/A   Unknown
1:00 PM 34 °F - 26 °F 63% 30.22 in - ENE 8.1 mph - -  
1:00 PM 34.2 °F 27.5 °F 26.1 °F 72% 30.22 in - ENE 8.1 mph - N/A   Unknown
2:00 PM 34.3 °F 30.2 °F 25.0 °F 69% 30.25 in - East 4.6 mph - N/A   Unknown
3:00 PM 34.2 °F 30.0 °F 25.2 °F 70% 30.25 in - ENE 4.6 mph - N/A   Unknown
4:00 PM 34 °F - 27 °F 66% 30.28 in - ENE 3.5 mph - -  
4:00 PM 34.2 °F 31.2 °F 27.0 °F 75% 30.28 in - ENE 3.5 mph - N/A   Unknown
5:00 PM 34.2 °F 30.0 °F 27.1 °F 75% 30.29 in - ENE 4.6 mph - N/A   Unknown
6:00 PM 31.3 °F 25.6 °F 26.8 °F 83% 30.29 in - ESE 5.8 mph - N/A   Unknown
7:00 PM 33 °F - 27 °F 69% 30.32 in - SE 4.6 mph - -  
7:00 PM 31.5 °F 26.8 °F 26.6 °F 82% 30.32 in - SE 4.6 mph - N/A   Unknown
9:00 PM 31.3 °F 27.9 °F 25.9 °F 80% 30.33 in - SSE 3.5 mph - N/A   Unknown
10:00 PM 33 °F - 25 °F 64% 30.33 in - ESE 2.3 mph - -  
10:00 PM 31.5 °F - 25.3 °F 78% 30.33 in - ESE 2.3 mph - N/A   Unknown
11:00 PM 34.2 °F 25.7 °F 27.0 °F 75% 30.32 in - ENE 11.5 mph - N/A   Unknown